Regional Weather Roundup
Issued by NWS Northern Indiana

Home | Current Version | Previous Version | Graphics & Text | Print | Product List | Glossary On
Versions: 1 2 3 4 5 6 7 8 9 10 11 12 13 14 15 16 17 18 19 20 21 22 23 24 25 26 27 28 29 30 31 32 33 34 35 36 37 38 39 40 41 42 43 44 45 46 47 48 49 50
000
ASUS43 KIWX 290610
RWRIWX

KIWX WEATHER ROUNDUP
NATIONAL WEATHER SERVICE NORTHERN INDIANA
200 AM EDT FRI JUL 29 2016

NOTE: "FAIR" INDICATES FEW OR NO CLOUDS BELOW 12,000 FEET WITH NO
SIGNIFICANT WEATHER AND/OR OBSTRUCTIONS TO VISIBILITY.

* THESE STATIONS ARE NOT UNDER NWS QUALITY CONTROL. THEY ALSO MAY NOT
  REPORT WEATHER SUCH AS PRECIPITATION OR FOG.

INZ001>027-290700-
NORTHERN INDIANA

CITY           SKY/WX    TMP DP  RH WIND       PRES   REMARKS
GARY*          CLEAR     70  70 100 SE3       29.91F FOG
VALPARAISO     CLEAR     66  64  93 CALM      29.92F
6HR MIN TEMP:  66; 6HR MAX TEMP:  79;

MICHIGAN CITY* CLEAR     64  64 100 CALM      29.92S FOG
LAPORTE*       CLEAR    N/A N/A N/A CALM      29.93S
KNOX*          PTCLDY    64  63  94 CALM      29.91F
SOUTH BEND     CLEAR     67  66  97 CALM      29.92F
6HR MIN TEMP:  66; 6HR MAX TEMP:  71;

GOSHEN         PTCLDY    71  67  87 NE3       29.92S
6HR MIN TEMP:  70; 6HR MAX TEMP:  72;

MONTICELLO*    CLEAR     69  65  85 CALM      29.90F
6HR MIN TEMP:  69; 6HR MAX TEMP:  83;

LOGANSPORT*    CLEAR     66  64  94 CALM      29.91F
ROCHESTER*     CLEAR     70  68  94 CALM      29.92S
WARSAW*        CLEAR     68  68 100 CALM      29.92F
ANGOLA*          N/A     70  63  78 CALM      29.93S
FORT WAYNE     MOCLDY    71  67  87 N8        29.91F
6HR MIN TEMP:  71; 6HR MAX TEMP:  79; 6HR PCP:  0.08;

HUNTINGTON*    PTCLDY    69  68  96 N3        29.91F
6HR MIN TEMP:  69; 6HR MAX TEMP:  79;

MARION*        CLEAR     65  64  96 CALM      29.92S
6HR MIN TEMP:  59; 6HR MAX TEMP:  90;


$$
INZ028>050-290700-
CENTRAL INDIANA

CITY           SKY/WX    TMP DP  RH WIND       PRES   REMARKS
LAFAYETTE      MOCLDY    69  69 100 CALM      29.90F FOG
6HR MIN TEMP:  69; 6HR MAX TEMP:  83;

KOKOMO*        CLEAR     66  61  82 CALM      29.91F
6HR MIN TEMP:  66; 6HR MAX TEMP:  82;

MUNCIE*        CLEAR     74  67  78 SW3       29.92S
6HR MIN TEMP:  73; 6HR MAX TEMP:  83;

INDIANAPOLIS   MOCLDY    73  69  87 W3        29.92S
6HR MIN TEMP:  72; 6HR MAX TEMP:  81;


$$
MIZ043>046-050>051-056>058-064>065-071>073-077>080-290700-
SOUTHWEST LOWER MICHIGAN

CITY           SKY/WX    TMP DP  RH WIND       PRES   REMARKS
BATTLE CREEK   CLOUDY    68  67  96 E7        29.95S
6HR MIN TEMP:  68; 6HR MAX TEMP:  75; 6HR PCP: TRACE;

BENTON HARBOR  CLEAR     68  63  84 E3        29.91F
6HR MIN TEMP:  68; 6HR MAX TEMP:  76;

COLDWATER*     CLOUDY    70  66  87 E5        29.94S
6HR MIN TEMP:  69; 6HR MAX TEMP:  79;

HILLSDALE*     CLOUDY    66  63  90 E3        29.95S
6HR MIN TEMP:  59; 6HR MAX TEMP:  87;

HOLLAND        CLOUDY    69  64  84 E6        29.94F
6HR MIN TEMP:  69; 6HR MAX TEMP:  75;

GRAND RAPIDS   CLOUDY    69  62  78 E7        29.95F
6HR MIN TEMP:  68; 6HR MAX TEMP:  71;

KALAMAZOO      CLOUDY    70  66  87 VRB5      29.93S
6HR MIN TEMP:  69; 6HR MAX TEMP:  72;

STURGIS*       CLOUDY    68  67  96 E3        29.92F
6HR MIN TEMP:  68; 6HR MAX TEMP:  72; 6HR PCP:  0.04;

THREE RIVERS*  MOCLDY    70  67  89 NE3       29.93S
6HR MIN TEMP:  69; 6HR MAX TEMP:  73;


$$
OHZ001>008-015>018-024>025-290700-
NORTHWEST OHIO

CITY           SKY/WX    TMP DP  RH WIND       PRES   REMARKS
DEFIANCE       PTCLDY    73  65  75 CALM      29.93R
6HR MIN TEMP:  72; 6HR MAX TEMP:  85;

FINDLAY        CLEAR     73  64  73 N3        29.92R
6HR MIN TEMP:  69; 6HR MAX TEMP:  81;

TOLEDO EXPRESS CLOUDY    73  67  81 NE6       29.92R
6HR MIN TEMP:  71; 6HR MAX TEMP:  82;

TOLEDO METCALF PTCLDY    75  66  73 N5        29.94R
6HR MIN TEMP:  75; 6HR MAX TEMP:  82;

LIMA           PTCLDY    69  66  90 CALM      29.92R
6HR MIN TEMP:  67; 6HR MAX TEMP:  81;


$$
AND FOR LAKE MICHIGAN COASTAL AND OPEN LAKE BUOY OBSERVATIONS

STATION/POSITION TEMP    WIND        PRES    VSBY  WAVE
                 AIR SEA DIR/SP/G                  HT/PER
                 (F)     (DEG/KT/KT) (MB)    (MI)  (FT/S)
CALUMET HARBOR    74      80/  2/  3 1012.4F
MICHIGAN CITY     71      CALM  /  1   N/A
BURNS HARBOR      74     100/  5/  7 1013.5R
SAINT JOSEPH      70      30/  2/  4 1013.5F
SOUTH LAKE BUOY   74 75   70/ 10/ 12 1012.8F         3/ 6
4 MI NW BRIDGMAN  72 76   50/  6/ 10 1012.7F         1
MICHIGAN CITY     73 77  120/  4/  6   N/A           2/ 6

$$
&&



USA.gov is the U.S. government's official web portal to all federal, state and local government web resources and services.